Skip Page Navigation
NASA JPL Caltech
NASA Logo - Jet Propulsion Laboratory + View the NASA Portal
+ Near-Earth Object (NEO) Program
Search JPL
JPL Home Earth Solar System Stars & Galaxies Technology
JPL Solar System Dynamics
BODIES ORBITS EPHEMERIDES TOOLS PHYSICAL DATA DISCOVERY FAQ SITE MAP
JPL Small-Body Database Browser
Search: [ help ]  
2100 Ra-Shalom (1978 RA)
Classification: Aten [NEO]          SPK-ID: 2002100
Ephemeris | Orbit Diagram | Orbital Elements | Physical Parameters | Discovery Circumstances | Close-Approach Data ]

[ show orbit diagram ]
Orbital Elements at Epoch 2456400.5 (2013-Apr-18.0) TDB
Reference: JPL 133 (heliocentric ecliptic J2000)
 Element Value Uncertainty (1-sigma)   Units 
e .4364068483365076 2.9411e-08  
a .8320837685441306 6.391e-10 AU
q .4689567135618225 2.4423e-08 AU
i 15.75766499079086 6.3255e-06 deg
node 170.8450473105521 9.598e-06 deg
peri 356.0357280741819 1.151e-05 deg
M 35.23883199024921 1.437e-05 deg
tp 2456373.362614339561
(2013-Mar-21.86261434)
1.1051e-05 JED
period 277.2356030546486
0.76
3.1941e-07
8.745e-10
d
yr
n 1.298534517332671 1.4961e-09 deg/d
Q 1.195210823526439 9.1801e-10 AU
  Orbit Determination Parameters
   # obs. used (total)      1262  
   # delay obs. used      4  
   # Doppler obs. used      2  
   data-arc span      13474 days (36.89 yr)  
   first obs. used      1975-10-03  
   last obs. used      2012-08-23  
   planetary ephem.      DE405  
   SB-pert. ephem.      SB405-CPV-2  
   condition code      0  
   fit RMS      .53082  
   data source      ORB  
   producer      Otto Matic  
   solution date      2013-Apr-29 15:43:14  

Additional Information
 Earth MOID = .149861 AU 
 T_jup = 6.946 
[ show covariance matrix ]

Ephemeris | Orbit Diagram | Orbital Elements | Physical Parameters | Discovery Circumstances | Close-Approach Data ]

Physical Parameter Table
Parameter Symbol Value Units Sigma Reference Notes
absolute magnitude H 16.05 mag n/a PDS3 (MPC 17264)  
magnitude slope G 0.12   n/a PDS3 (MPC 17264) Fit
diameter diameter 2.3 km 0.2 Shepard et al., Icarus 193 (2008) 20-38  
rotation period rot_per 19.797 h n/a Asteroid Lightcurve DataBase (Rev. 2013-May-01) Published Reference List:
[Ostro, S.J.; Harris, A.W.; Campbell, D.B.; Shapiro, I.I.; Young, J. (1984) Icarus 60, 391-403.]
[Harris, A.W.; Young, J.W.; Dockweiler, T.; Gibson, J.; et al. (1992) Icarus 95, 115-147.]
[Harris, A.W.; Young, J.W.; Dockweiler, T.; Gibson, J.; et al. (1992) Icarus 95, 115-147.]
[Pravec, P.; Wolf, M.; Sarounova, L. (1998) Icarus 136, 124-153.]
[Pravec, P.; Wolf, M.; Sarounova, L. (2003) http://www.asu.cas.cz/~ppravec/neo.htm]
[Kaasalainen, M.; et al. (2003) Icarus 167, 178-196.]
[Shepard, M.K.; Clark, B.E.; Nolan, M.C.; Benner, L.A.M.; et al. (2008) Icarus 193, 20-38.]
[Durech, J.; Vokrouhlicky, D.; Baransky, A.R.; Breiter, S.; et al. (2012) Astron. Astrophys. 547, A10.]
geometric albedo albedo 0.13   0.03 Shepard et al., Icarus 193 (2008) 20-38  
B-V BV .712 mag .011 EAR-A-5-DDR-UBV-MEAN-VALUES-V1.1 #obs=2; phase (min.=27.41, mean=27.52, max.=27.63) deg.
U-B UB .310 mag .053 EAR-A-5-DDR-UBV-MEAN-VALUES-V1.1 #obs=2; phase (min.=27.41, mean=27.52, max.=27.63) deg.
Tholen spectral type spec_T C   n/a EAR-A-5-DDR-TAXONOMY-V4.0 used 7 color indices; used ground-based radiometric albedo
SMASSII spectral type spec_B Xc   n/a EAR-A-5-DDR-TAXONOMY-V4.0 based on a high-resolution spectrum by Xu et al. (1995) or Bus and Binzel (2002)

2100 Ra-Shalom (1978 RA)          Discovered 1978-Sep-10 by Helin, E. F. at Palomar (675)
Reference: DISCOVERY.DBLast Updated: 2003-08-29

[ hide close-approach data ]
Close-Approach Data   ...sorted by Date/Time (TDB)
Date/Time (TDB) Time Uncertainty
(days_HH:MM)
Body Nominal Distance (AU) Minimum Distance (AU) Maximum Distance (AU) V-relative (km/s) V-infinity (km/s) JD (TDB) Time Uncertainty (minutes) Semi-major axis (km) Semi-minor axis (km) range-LOV angle (deg) N-sigma BP Orbit Ref. Reference Modified
1902-Aug-08 22:47 < 00:01 Earth 0.293435110454121 0.29343356413685 0.29343665677679 18.7407554667648 18.7402709388566 2415970.449484714 0.0202651923572253 94.2203269257132 6.1618438636131 -34.9107704436575 3518772.65444942 T 133 CATAB v2.0c-linF95 2013-Apr-29 15:43:19 2013-Apr-29 15:43
1903-Oct-05 01:20 < 00:01 Earth 0.478510291527677 0.478508456551889 0.478512126504965 26.0754067237769 26.0751931776209 2416392.555829707 0.0265386170149413 99.072486785423 13.8128983617509 18.9742338225965 1671591.20668339 T 133 CATAB v2.0c-linF95 2013-Apr-29 15:43:19 2013-Apr-29 15:43
1905-Aug-15 05:10 < 00:01 Earth 0.465551926142964 0.46555019293957 0.465553659348131 25.1396103664756 25.139382705994 2417072.715340018 0.0256825126567778 95.4269593183613 7.49581231656045 -21.7505740056485 3207276.5882158 T 133 CATAB v2.0c-linF95 2013-Apr-29 15:43:19 2013-Apr-29 15:43
1906-Oct-11 22:26 < 00:01 Earth 0.294160689943596 0.294159078189058 0.294162301701709 19.5335516870409 19.5330879714931 2417495.434783425 0.0206625313918596 92.0334483010905 13.0789040724475 30.1477425925736 1510635.02954039 T 133 CATAB v2.0c-linF95 2013-Apr-29 15:43:19 2013-Apr-29 15:43
1906-Dec-24 10:46 < 00:01 Mercury 0.081787809591802 0.0817867537673567 0.0817888655302589 17.995236045587 17.9951359799003 2417568.948699730 0.0302723369453372 157.313051529637 3.79401746262987 70.9749251839936 2966595.1232637 T 133 CATAB v2.0c-linF95 2013-Apr-29 15:43:19 2013-Apr-29 15:43
1909-Oct-13 04:10 < 00:01 Earth 0.161088153782237 0.161087496565399 0.16108881101256 13.7298160602232 13.728611293161 2418592.673663673 0.0212735826459025 70.5269352423674 11.2824774659741 63.5822174152041 1489442.20570115 T 133 CATAB v2.0c-linF95 2013-Apr-29 15:43:19 2013-Apr-29 15:43
1912-Apr-30 13:03 < 00:01 Earth 0.490608880841425 0.490608415368355 0.490609346316821 18.1817250089551 18.1814263019338 2419523.043826985 0.318705555638623 51.8414489122399 6.30867003606513 -68.6210326397027 9246124.27730193 T 133 CATAB v2.0c-linF95 2013-Apr-29 15:43:19 2013-Apr-29 15:43
1912-Sep-29 04:50 < 00:01 Earth 0.164327715064154 0.164327345817683 0.164328084317848 11.4095325586837 11.4081113405667 2419674.701110173 0.0996445943682941 42.3543960132324 7.97125378109564 -79.5141471797939 2170080.17328131 T 133 CATAB v2.0c-linF95 2013-Apr-29 15:43:19 2013-Apr-29 15:43
1915-May-30 10:34 < 00:01 Earth 0.436664103684151 0.436662792407641 0.436665414963177 10.589456764824 10.5888805253608 2420647.940617231 0.36418380900193 57.7661645582403 4.15388873730828 -38.8836192097417 6825945.13659292 T 133 CATAB v2.0c-linF95 2013-Apr-29 15:43:19 2013-Apr-29 15:43
1915-Sep-09 08:50 < 00:01 Earth 0.189767327571041 0.189767260248805 0.189767394894195 11.3600789427861 11.3588429008929 2420749.868172058 0.114277200101318 33.3801316451697 3.58752132731512 -87.257367127007 5641231.49744902 T 133 CATAB v2.0c-linF95 2013-Apr-29 15:43:19 2013-Apr-29 15:43
1915-Dec-30 10:22 < 00:01 Earth 0.447234479211369 0.447233672414441 0.44723528601035 13.2851876405303 13.2847391877576 2420861.931625923 0.350529688042621 48.0249246686284 3.35984486162595 50.2402215824733 11746578.7666678 T 133 CATAB v2.0c-linF95 2013-Apr-29 15:43:19 2013-Apr-29 15:43
1916-Nov-07 08:35 < 00:01 Mercury 0.0973724545264734 0.0973706259674344 0.0973742831392748 18.9925578952695 18.992478258904 2421174.857527317 0.0131838372891864 143.386216031733 3.10434509340592 -51.2594956036704 3571439.52305501 T 133 CATAB v2.0c-linF95 2013-Apr-29 15:43:19 2013-Apr-29 15:43
1918-Aug-19 11:36 < 00:01 Earth 0.177922180535427 0.177922172836561 0.177922188232882 11.5128564908093 11.5115556513369 2421824.983509080 0.0817390169497044 42.8739472438356 1.80628756387175 89.9669399915945 10585245.3941256 T 133 CATAB v2.0c-linF95 2013-Apr-29 15:43:19 2013-Apr-29 15:43
1919-Jan-24 19:27 < 00:01 Earth 0.493222793969621 0.493222510420491 0.493223077520536 19.8316925478399 19.8314201445071 2421983.310234136 0.297041894401691 45.2091233151567 4.28658675209263 75.1196721091291 14506317.7156159 T 133 CATAB v2.0c-linF95 2013-Apr-29 15:43:19 2013-Apr-29 15:43
1921-Aug-07 14:37 < 00:01 Earth 0.201936788981192 0.201936074818005 0.201937503153408 14.5624112963544 14.5615051942765 2422909.109192670 0.0131853934903036 64.7335912543667 4.60005615195199 -55.8021665280272 4317466.17513819 T 133 CATAB v2.0c-linF95 2013-Apr-29 15:43:19 2013-Apr-29 15:43
1924-Aug-10 02:04 < 00:01 Earth 0.338539649210382 0.338538372407908 0.338540926015044 20.5017605414082 20.5013766435195 2424007.586009756 0.0190730654431041 73.9671450505936 6.59716221748941 -29.7473766410199 3386229.2079438 T 133 CATAB v2.0c-linF95 2013-Apr-29 15:43:19 2013-Apr-29 15:43
1925-Oct-06 20:41 < 00:01 Earth 0.425917814082186 0.425916426112295 0.425919202053052 24.242690458349 24.2424324058648 2424430.361843131 0.0204685929804197 75.6780969437265 13.6343681690401 21.6067687290337 1717319.30278171 T 133 CATAB v2.0c-linF95 2013-Apr-29 15:43:19 2013-Apr-29 15:43
1928-Oct-12 21:49 < 00:01 Earth 0.247873753131824 0.247872640580141 0.247874865686593 17.7506968444941 17.7500912613022 2425532.409047777 0.0124333431765969 67.0952858194402 12.6830789588185 36.6245577636821 1523784.96801988 T 133 CATAB v2.0c-linF95 2013-Apr-29 15:43:19 2013-Apr-29 15:43
1931-Oct-11 13:37 < 00:01 Earth 0.149413560848298 0.149413288648594 0.149413833049765 12.6038293196393 12.6024143595078 2426626.067207024 0.0342596939933325 46.0744131682486 10.4906637255581 78.4146690862323 1564908.1122439 T 133 CATAB v2.0c-linF95 2013-Apr-29 15:43:19 2013-Apr-29 15:43
1932-Jan-11 00:06 < 00:01 Mercury 0.0782409926491275 0.0782407360721656 0.0782412492893455 17.9812679856837 17.9811633025545 2426717.503870163 0.0197267882406793 113.501319233679 3.54154579623959 83.9903539833904 3198031.89645738 T 133 CATAB v2.0c-linF95 2013-Apr-29 15:43:19 2013-Apr-29 15:43
